AAL1032 KJFK-KTPA

Flight info

Callsign AAL1032
Flight time 2h 18m
Altitude 34000
Route WAVEY EMJAY Q167 ZJAAY Q97 SAWED Q64 GUILD Q409 PUPYY BAAMF DADES2
Aircraft A321/M-SDE3FGHIRWY/LB1

Departure

Time 2026-05-05 13:48
Airport John F. Kennedy International Airport (KJFK)

Arrival

Time 2026-05-05 16:06
Airport Tampa International Airport (KTPA)
Time Latitude Longitude Altitude Speed Heading
2026-05-05 13:29 40.64950 -73.79298 24 ft 0 kts 331°
2026-05-05 13:39 40.64944 -73.79294 23 ft 3 kts 331°
2026-05-05 13:39 40.64930 -73.79284 27 ft 3 kts 338°
2026-05-05 13:39 40.64909 -73.79277 26 ft 3 kts
2026-05-05 13:40 40.64890 -73.79284 23 ft 3 kts 42°
2026-05-05 13:40 40.64880 -73.79299 26 ft 0 kts 60°
2026-05-05 13:42 40.64881 -73.79297 25 ft 2 kts 60°
2026-05-05 13:42 40.64900 -73.79252 26 ft 12 kts 61°
2026-05-05 13:43 40.64960 -73.79112 23 ft 19 kts 61°
2026-05-05 13:43 40.65027 -73.78957 23 ft 20 kts 56°
2026-05-05 13:43 40.65131 -73.78891 23 ft 14 kts 54°
2026-05-05 13:43 40.65162 -73.78719 23 ft 27 kts 65°
2026-05-05 13:44 40.65256 -73.78492 25 ft 29 kts 63°
2026-05-05 13:44 40.65208 -73.78260 28 ft 27 kts 121°
2026-05-05 13:44 40.65113 -73.78041 23 ft 28 kts 120°
2026-05-05 13:44 40.65013 -73.77820 19 ft 29 kts 121°
2026-05-05 13:45 40.64913 -73.77601 21 ft 28 kts 120°
2026-05-05 13:45 40.64816 -73.77387 23 ft 26 kts 121°
2026-05-05 13:45 40.64754 -73.77220 23 ft 15 kts 78°
2026-05-05 13:45 40.64830 -73.77063 20 ft 24 kts 54°
2026-05-05 13:46 40.64930 -73.76879 21 ft 26 kts 54°
2026-05-05 13:46 40.64976 -73.76716 24 ft 15 kts 112°
2026-05-05 13:46 40.65017 -73.76591 21 ft 23 kts 31°
2026-05-05 13:46 40.65097 -73.76478 22 ft 11 kts 104°
2026-05-05 13:47 40.65078 -73.76430 24 ft 7 kts 119°
2026-05-05 13:47 40.65039 -73.76365 23 ft 11 kts 154°
2026-05-05 13:47 40.64957 -73.76408 22 ft 24 kts 210°
2026-05-05 13:47 40.64596 -73.76689 20 ft 94 kts 211°
2026-05-05 13:48 40.63858 -73.77265 24 ft 150 kts 211°
2026-05-05 13:48 40.62861 -73.78045 316 ft 171 kts 209°
2026-05-05 13:48 40.61840 -73.78850 1016 ft 173 kts 214°
2026-05-05 13:48 40.60805 -73.79685 1705 ft 174 kts 217°
2026-05-05 13:49 40.59755 -73.80498 2203 ft 183 kts 211°
2026-05-05 13:49 40.58388 -73.80678 2373 ft 218 kts 175°
2026-05-05 13:49 40.56908 -73.80091 2681 ft 232 kts 161°
2026-05-05 13:49 40.55539 -73.78787 2944 ft 251 kts 143°
2026-05-05 13:50 40.54206 -73.77201 3319 ft 261 kts 142°
2026-05-05 13:50 40.52843 -73.75529 3716 ft 274 kts 141°
2026-05-05 13:50 40.51445 -73.73793 4375 ft 278 kts 141°
2026-05-05 13:50 40.50044 -73.72044 5121 ft 278 kts 141°
2026-05-05 13:51 40.48644 -73.70299 5855 ft 278 kts 142°
2026-05-05 13:51 40.47249 -73.68567 6554 ft 279 kts 142°
2026-05-05 13:51 40.45833 -73.66815 7206 ft 280 kts 142°
2026-05-05 13:51 40.44406 -73.65056 7841 ft 283 kts 143°
2026-05-05 13:52 40.42966 -73.63289 8487 ft 285 kts 143°
2026-05-05 13:52 40.41510 -73.61509 9133 ft 287 kts 144°
2026-05-05 13:52 40.40063 -73.59740 9789 ft 289 kts 144°
2026-05-05 13:52 40.38577 -73.57925 10222 ft 299 kts 144°
2026-05-05 13:53 40.37001 -73.56008 10328 ft 319 kts 143°
2026-05-05 13:53 40.35327 -73.53973 10457 ft 337 kts 143°
2026-05-05 13:53 40.33569 -73.51833 10701 ft 350 kts 142°
2026-05-05 13:53 40.31791 -73.49657 11164 ft 356 kts 142°
2026-05-05 13:54 40.29975 -73.47426 11653 ft 361 kts 142°
2026-05-05 13:54 40.28132 -73.45163 12146 ft 365 kts 142°
2026-05-05 13:54 40.26266 -73.42875 12630 ft 370 kts 142°
2026-05-05 13:54 40.24373 -73.40563 13115 ft 375 kts 142°
2026-05-05 13:55 40.22358 -73.38399 13590 ft 375 kts 150°
2026-05-05 13:55 40.20225 -73.36402 14048 ft 379 kts 150°
2026-05-05 13:55 40.18070 -73.34389 14508 ft 383 kts 150°
2026-05-05 13:55 40.15895 -73.32359 14967 ft 386 kts 150°
2026-05-05 13:56 40.13579 -73.30638 15403 ft 380 kts 164°
2026-05-05 13:56 40.11048 -73.29766 15810 ft 375 kts 179°
2026-05-05 13:56 40.08469 -73.29796 16230 ft 369 kts 194°
2026-05-05 13:56 40.06023 -73.30679 16675 ft 363 kts 208°
2026-05-05 13:57 40.03849 -73.32308 17125 ft 359 kts 221°
2026-05-05 13:57 40.01943 -73.34417 17563 ft 360 kts 225°
2026-05-05 13:57 40.00039 -73.36563 18009 ft 363 kts 225°
2026-05-05 13:57 39.98111 -73.38721 18413 ft 367 kts 224°
2026-05-05 13:58 39.96168 -73.40889 18794 ft 369 kts 224°
2026-05-05 13:58 39.94211 -73.43075 19178 ft 371 kts 224°
2026-05-05 13:58 39.92244 -73.45271 19530 ft 374 kts 224°
2026-05-05 13:58 39.90264 -73.47477 19901 ft 376 kts 224°
2026-05-05 13:59 39.86277 -73.51908 20654 ft 381 kts 224°
2026-05-05 13:59 39.84260 -73.54149 21026 ft 383 kts 224°
2026-05-05 14:00 39.80194 -73.58679 21746 ft 387 kts 224°
2026-05-05 14:00 39.78839 -73.60189 21989 ft 388 kts 224°
2026-05-05 14:00 39.76086 -73.63259 22469 ft 391 kts 224°
2026-05-05 14:00 39.74015 -73.65566 22812 ft 393 kts 224°
2026-05-05 14:01 39.71934 -73.67881 23174 ft 395 kts 224°
2026-05-05 14:01 39.69838 -73.70207 23522 ft 397 kts 224°
2026-05-05 14:01 39.67747 -73.72519 23820 ft 399 kts 224°
2026-05-05 14:01 39.65627 -73.74859 24121 ft 401 kts 224°
2026-05-05 14:02 39.63496 -73.77213 24422 ft 403 kts 224°
2026-05-05 14:02 39.61359 -73.79572 24716 ft 404 kts 224°
2026-05-05 14:02 39.59214 -73.81938 25019 ft 406 kts 224°
2026-05-05 14:02 39.57058 -73.84314 25311 ft 407 kts 224°
2026-05-05 14:03 39.54895 -73.86698 25596 ft 409 kts 224°
2026-05-05 14:03 39.52753 -73.89056 25887 ft 410 kts 224°
2026-05-05 14:03 39.50575 -73.91457 26175 ft 412 kts 224°
2026-05-05 14:03 39.48388 -73.93869 26454 ft 414 kts 224°
2026-05-05 14:04 39.46213 -73.96264 26734 ft 415 kts 224°
2026-05-05 14:04 39.44008 -73.98684 27021 ft 417 kts 224°
2026-05-05 14:04 39.41792 -74.01112 27300 ft 418 kts 223°
2026-05-05 14:04 39.39566 -74.03544 27589 ft 419 kts 223°
2026-05-05 14:05 39.37334 -74.05979 27865 ft 421 kts 223°
2026-05-05 14:05 39.35092 -74.08425 28131 ft 422 kts 223°
2026-05-05 14:05 39.32846 -74.10878 28403 ft 424 kts 223°
2026-05-05 14:05 39.30589 -74.13341 28660 ft 425 kts 223°
2026-05-05 14:06 39.28326 -74.15807 28911 ft 427 kts 223°
2026-05-05 14:06 39.26052 -74.18282 29147 ft 428 kts 223°
2026-05-05 14:06 39.23775 -74.20760 29376 ft 429 kts 223°
2026-05-05 14:06 39.21507 -74.23227 29591 ft 431 kts 223°
2026-05-05 14:07 39.19216 -74.25717 29801 ft 432 kts 223°
2026-05-05 14:07 39.16917 -74.28215 30010 ft 432 kts 223°
2026-05-05 14:07 39.14621 -74.30710 30281 ft 431 kts 223°
2026-05-05 14:07 39.12332 -74.33195 30527 ft 430 kts 223°
2026-05-05 14:08 39.10041 -74.35677 30752 ft 430 kts 223°
2026-05-05 14:08 39.07754 -74.38149 30983 ft 429 kts 222°
2026-05-05 14:08 39.05467 -74.40618 31224 ft 429 kts 222°
2026-05-05 14:08 39.03184 -74.43078 31444 ft 428 kts 222°
2026-05-05 14:09 39.00899 -74.45536 31661 ft 428 kts 222°
2026-05-05 14:09 38.98634 -74.47970 31864 ft 428 kts 222°
2026-05-05 14:09 38.96351 -74.50421 32086 ft 428 kts 222°
2026-05-05 14:09 38.94071 -74.52870 32306 ft 427 kts 222°
2026-05-05 14:10 38.91854 -74.55332 32510 ft 427 kts 224°
2026-05-05 14:10 38.89626 -74.57923 32727 ft 426 kts 225°
2026-05-05 14:10 38.87456 -74.60513 32927 ft 426 kts 225°
2026-05-05 14:10 38.85293 -74.63110 33131 ft 426 kts 225°
2026-05-05 14:11 38.83153 -74.65666 33316 ft 426 kts 225°
2026-05-05 14:11 38.80978 -74.68239 33515 ft 426 kts 225°
2026-05-05 14:11 38.78757 -74.70839 33693 ft 426 kts 224°
2026-05-05 14:11 38.76584 -74.73364 33902 ft 426 kts 224°
2026-05-05 14:12 38.74380 -74.75901 34007 ft 425 kts 224°
2026-05-05 14:12 38.72166 -74.78321 34020 ft 424 kts 222°
2026-05-05 14:12 38.68324 -74.82290 34017 ft 423 kts 221°
2026-05-05 14:13 38.62966 -74.87729 34023 ft 423 kts 221°
2026-05-05 14:13 38.58389 -74.92455 34020 ft 423 kts 221°
2026-05-05 14:14 38.54569 -74.96426 34029 ft 423 kts 222°
2026-05-05 14:14 38.50068 -75.01210 34047 ft 423 kts 223°
2026-05-05 14:15 38.45632 -75.06141 34058 ft 424 kts 222°
2026-05-05 14:15 38.40972 -75.10767 34056 ft 425 kts 219°
2026-05-05 14:16 38.36171 -75.15192 34059 ft 425 kts 219°
2026-05-05 14:16 38.31389 -75.19620 34069 ft 425 kts 219°
2026-05-05 14:17 38.26651 -75.24096 34071 ft 424 kts 219°
2026-05-05 14:17 38.21952 -75.28565 34071 ft 423 kts 219°
2026-05-05 14:18 38.17233 -75.33038 34065 ft 423 kts 219°
2026-05-05 14:18 38.12512 -75.37483 34064 ft 422 kts 219°
2026-05-05 14:19 38.07793 -75.41909 34075 ft 421 kts 219°
2026-05-05 14:19 38.03093 -75.46276 34070 ft 422 kts 218°
2026-05-05 14:20 37.98242 -75.50521 34059 ft 423 kts 217°
2026-05-05 14:20 37.93365 -75.54690 34077 ft 423 kts 217°
2026-05-05 14:21 37.88505 -75.58880 34074 ft 422 kts 217°
2026-05-05 14:21 37.83662 -75.63079 34082 ft 422 kts 216°
2026-05-05 14:22 37.78700 -75.66981 34091 ft 423 kts 213°
2026-05-05 14:22 37.73597 -75.70704 34089 ft 423 kts 213°
2026-05-05 14:23 37.68537 -75.74417 34094 ft 422 kts 213°
2026-05-05 14:23 37.63482 -75.78201 34085 ft 422 kts 213°
2026-05-05 14:24 37.58440 -75.81997 34075 ft 423 kts 213°
2026-05-05 14:24 37.53441 -75.85898 34068 ft 421 kts 220°
2026-05-05 14:25 37.49086 -75.90787 34074 ft 420 kts 225°
2026-05-05 14:25 37.44821 -75.95757 34080 ft 420 kts 225°
2026-05-05 14:26 37.40526 -76.00747 34081 ft 420 kts 225°
2026-05-05 14:26 37.36228 -76.05735 34077 ft 421 kts 225°
2026-05-05 14:27 37.31927 -76.10714 34090 ft 420 kts 225°
2026-05-05 14:27 37.27625 -76.15689 34103 ft 420 kts 225°
2026-05-05 14:28 37.23339 -76.20647 34077 ft 421 kts 225°
2026-05-05 14:28 37.19019 -76.25629 34076 ft 422 kts 225°
2026-05-05 14:29 37.14687 -76.30609 34060 ft 423 kts 225°
2026-05-05 14:29 37.10355 -76.35584 34081 ft 423 kts 225°
2026-05-05 14:30 37.06026 -76.40561 34083 ft 422 kts 225°
2026-05-05 14:30 37.01710 -76.45501 34087 ft 422 kts 225°
2026-05-05 14:31 36.97376 -76.50459 34109 ft 422 kts 225°
2026-05-05 14:31 36.93037 -76.55419 34085 ft 423 kts 225°
2026-05-05 14:32 36.88686 -76.60386 34103 ft 424 kts 225°
2026-05-05 14:32 36.84325 -76.65355 34113 ft 425 kts 225°
2026-05-05 14:33 36.79984 -76.70284 34116 ft 425 kts 225°
2026-05-05 14:33 36.75632 -76.75221 34121 ft 425 kts 225°
2026-05-05 14:34 36.71255 -76.80181 34117 ft 425 kts 225°
2026-05-05 14:34 36.66876 -76.85130 34125 ft 425 kts 225°
2026-05-05 14:35 36.62493 -76.90078 34112 ft 426 kts 225°
2026-05-05 14:35 36.58099 -76.95029 34108 ft 427 kts 225°
2026-05-05 14:36 36.53717 -76.99970 34112 ft 427 kts 225°
2026-05-05 14:36 36.49312 -77.04935 34114 ft 427 kts 225°
2026-05-05 14:37 36.44900 -77.09879 34129 ft 427 kts 225°
2026-05-05 14:37 36.40484 -77.14822 34136 ft 427 kts 225°
2026-05-05 14:38 36.36067 -77.19755 34139 ft 427 kts 225°
2026-05-05 14:38 36.31670 -77.24662 34131 ft 428 kts 225°
2026-05-05 14:39 36.27087 -77.29400 34121 ft 430 kts 222°
2026-05-05 14:39 36.22335 -77.33916 34125 ft 431 kts 221°
2026-05-05 14:40 36.17570 -77.38423 34132 ft 431 kts 221°
2026-05-05 14:40 36.12849 -77.42992 34137 ft 431 kts 222°
2026-05-05 14:41 36.08164 -77.47562 34119 ft 431 kts 222°
2026-05-05 14:41 36.03448 -77.52134 34129 ft 431 kts 222°
2026-05-05 14:42 35.98729 -77.56693 34137 ft 431 kts 222°
2026-05-05 14:42 35.94004 -77.61258 34129 ft 432 kts 222°
2026-05-05 14:43 35.89264 -77.65828 34119 ft 433 kts 222°
2026-05-05 14:43 35.84552 -77.70360 34120 ft 434 kts 222°
2026-05-05 14:44 35.79763 -77.74963 34137 ft 434 kts 222°
2026-05-05 14:44 35.74993 -77.79532 34144 ft 435 kts 222°
2026-05-05 14:45 35.70219 -77.84101 34139 ft 435 kts 222°
2026-05-05 14:45 35.65447 -77.88664 34147 ft 435 kts 222°
2026-05-05 14:46 35.60702 -77.93189 34137 ft 435 kts 222°
2026-05-05 14:46 35.55943 -77.97716 34136 ft 435 kts 223°
2026-05-05 14:47 35.51152 -78.02282 34129 ft 436 kts 223°
2026-05-05 14:47 35.46349 -78.06858 34137 ft 438 kts 223°
2026-05-05 14:48 35.41526 -78.11430 34126 ft 438 kts 223°
2026-05-05 14:48 35.36698 -78.16000 34152 ft 439 kts 223°
2026-05-05 14:49 35.31888 -78.20550 34159 ft 439 kts 223°
2026-05-05 14:49 35.27050 -78.25122 34152 ft 440 kts 223°
2026-05-05 14:50 35.22199 -78.29691 34147 ft 440 kts 223°
2026-05-05 14:50 35.17344 -78.34254 34140 ft 440 kts 222°
2026-05-05 14:51 35.12491 -78.38821 34160 ft 441 kts 222°
2026-05-05 14:51 35.07650 -78.43365 34167 ft 441 kts 222°
2026-05-05 14:52 35.02780 -78.47920 34172 ft 441 kts 222°
2026-05-05 14:52 34.97907 -78.52471 34179 ft 441 kts 222°
2026-05-05 14:53 34.93035 -78.57025 34159 ft 441 kts 222°
2026-05-05 14:53 34.88163 -78.61577 34165 ft 441 kts 222°
2026-05-05 14:54 34.83314 -78.66091 34173 ft 441 kts 222°
2026-05-05 14:54 34.78437 -78.70622 34152 ft 442 kts 223°
2026-05-05 14:55 34.73546 -78.75160 34124 ft 443 kts 223°
2026-05-05 14:55 34.68648 -78.79703 34121 ft 443 kts 223°
2026-05-05 14:56 34.63741 -78.84252 34134 ft 444 kts 223°
2026-05-05 14:56 34.59658 -78.88033 34144 ft 444 kts 223°
2026-05-05 14:57 34.54724 -78.92594 34151 ft 445 kts 223°
2026-05-05 14:57 34.49825 -78.97102 34148 ft 445 kts 223°
2026-05-05 14:58 34.44886 -79.01633 34141 ft 445 kts 223°
2026-05-05 14:58 34.39896 -79.06102 34130 ft 447 kts 223°
2026-05-05 14:59 34.34795 -79.10435 34130 ft 449 kts 223°
2026-05-05 14:59 34.29670 -79.14754 34133 ft 449 kts 223°
2026-05-05 15:00 34.25412 -79.18393 34147 ft 451 kts 225°
2026-05-05 15:00 34.19731 -79.23854 34166 ft 447 kts 229°
2026-05-05 15:01 34.14989 -79.28698 34173 ft 446 kts 229°
2026-05-05 15:01 34.10213 -79.33488 34167 ft 447 kts 228°
2026-05-05 15:02 34.05389 -79.38223 34174 ft 447 kts 227°
2026-05-05 15:02 34.00577 -79.42911 34122 ft 447 kts 229°
2026-05-05 15:03 33.95737 -79.47643 34122 ft 449 kts 229°
2026-05-05 15:03 33.90884 -79.52401 34126 ft 451 kts 229°
2026-05-05 15:04 33.86001 -79.57166 34131 ft 453 kts 229°
2026-05-05 15:04 33.81029 -79.61861 34133 ft 456 kts 227°
2026-05-05 15:05 33.73498 -79.68808 34130 ft 457 kts 227°
2026-05-05 15:06 33.68454 -79.73481 34140 ft 458 kts 228°
2026-05-05 15:06 33.63414 -79.78174 34151 ft 459 kts 228°
2026-05-05 15:07 33.58359 -79.82872 34123 ft 461 kts 228°
2026-05-05 15:07 33.53274 -79.87583 34097 ft 463 kts 228°
2026-05-05 15:08 33.48180 -79.92290 34123 ft 466 kts 228°
2026-05-05 15:08 33.43047 -79.97030 34135 ft 466 kts 228°
2026-05-05 15:09 33.37909 -80.01769 34140 ft 466 kts 228°
2026-05-05 15:09 33.32804 -80.06473 34149 ft 466 kts 228°
2026-05-05 15:10 33.27666 -80.11203 34135 ft 466 kts 228°
2026-05-05 15:10 33.22519 -80.15929 34145 ft 467 kts 228°
2026-05-05 15:11 33.17389 -80.20621 34110 ft 468 kts 229°
2026-05-05 15:11 33.12210 -80.25362 34233 ft 472 kts 229°
2026-05-05 15:11 33.09600 -80.27753 34356 ft 473 kts 229°
2026-05-05 15:12 33.06988 -80.30141 34513 ft 474 kts 229°
2026-05-05 15:12 33.04373 -80.32529 34700 ft 473 kts 229°
2026-05-05 15:12 33.01755 -80.34915 34881 ft 473 kts 229°
2026-05-05 15:12 32.99141 -80.37292 35070 ft 473 kts 229°
2026-05-05 15:13 32.96532 -80.39664 35255 ft 472 kts 229°
2026-05-05 15:13 32.93925 -80.42037 35447 ft 471 kts 229°
2026-05-05 15:13 32.91345 -80.44382 35627 ft 471 kts 229°
2026-05-05 15:13 32.88745 -80.46743 35819 ft 470 kts 228°
2026-05-05 15:14 32.86145 -80.49101 36007 ft 469 kts 228°
2026-05-05 15:14 32.83548 -80.51455 36119 ft 470 kts 228°
2026-05-05 15:14 32.80951 -80.53806 36110 ft 469 kts 228°
2026-05-05 15:15 32.75764 -80.58508 36140 ft 469 kts 229°
2026-05-05 15:15 32.70576 -80.63200 36146 ft 468 kts 229°
2026-05-05 15:16 32.65440 -80.67934 36143 ft 467 kts 230°
2026-05-05 15:16 32.60380 -80.72691 36147 ft 467 kts 230°
2026-05-05 15:17 32.55276 -80.77466 36153 ft 468 kts 230°
2026-05-05 15:17 32.50151 -80.82220 36139 ft 468 kts 230°
2026-05-05 15:18 32.45016 -80.86966 36157 ft 468 kts 230°
2026-05-05 15:18 32.39888 -80.91709 36132 ft 468 kts 230°
2026-05-05 15:19 32.34787 -80.96419 36146 ft 467 kts 230°
2026-05-05 15:19 32.29662 -81.01145 36118 ft 467 kts 230°
2026-05-05 15:19 32.26929 -81.03320 36133 ft 481 kts 222°
2026-05-05 15:20 32.24020 -81.05271 36142 ft 481 kts 221°
2026-05-05 15:20 32.18187 -81.09165 36154 ft 481 kts 221°
2026-05-05 15:21 32.12363 -81.13053 36156 ft 481 kts 221°
2026-05-05 15:21 32.06579 -81.16916 36130 ft 481 kts 221°
2026-05-05 15:22 32.00752 -81.20785 36100 ft 480 kts 221°
2026-05-05 15:22 31.95192 -81.24952 36115 ft 461 kts 233°
2026-05-05 15:23 31.90476 -81.29942 36102 ft 455 kts 235°
2026-05-05 15:23 31.85769 -81.34925 36137 ft 455 kts 235°
2026-05-05 15:24 31.81055 -81.39880 36149 ft 454 kts 234°
2026-05-05 15:24 31.76370 -81.44803 36118 ft 453 kts 235°
2026-05-05 15:25 31.71675 -81.49740 36134 ft 453 kts 235°
2026-05-05 15:25 31.66991 -81.54673 36138 ft 452 kts 235°
2026-05-05 15:26 31.62298 -81.59593 36149 ft 452 kts 234°
2026-05-05 15:26 31.57596 -81.64499 36157 ft 452 kts 234°
2026-05-05 15:27 31.52923 -81.69381 36148 ft 452 kts 234°
2026-05-05 15:27 31.48234 -81.74275 36153 ft 451 kts 235°
2026-05-05 15:28 31.43549 -81.79162 36165 ft 451 kts 235°
2026-05-05 15:28 31.38419 -81.83612 36164 ft 472 kts 223°
2026-05-05 15:29 31.32737 -81.87467 36153 ft 472 kts 223°
2026-05-05 15:29 31.27120 -81.91271 36145 ft 472 kts 223°
2026-05-05 15:30 31.21396 -81.95139 36109 ft 472 kts 223°
2026-05-05 15:30 31.15710 -81.98990 36123 ft 472 kts 223°
2026-05-05 15:31 31.10032 -82.02840 36130 ft 472 kts 223°
2026-05-05 15:31 31.04378 -82.06654 36157 ft 473 kts 223°
2026-05-05 15:32 30.98699 -82.10476 36132 ft 472 kts 223°
2026-05-05 15:32 30.93008 -82.14312 36211 ft 473 kts 223°
2026-05-05 15:33 30.87312 -82.18136 36216 ft 473 kts 223°
2026-05-05 15:33 30.81617 -82.21956 36231 ft 472 kts 223°
2026-05-05 15:34 30.75926 -82.25773 36234 ft 472 kts 223°
2026-05-05 15:34 30.70219 -82.29565 36216 ft 476 kts 219°
2026-05-05 15:34 30.67162 -82.31091 36226 ft 492 kts 210°
2026-05-05 15:35 30.63803 -82.32102 36234 ft 507 kts 200°
2026-05-05 15:35 30.56711 -82.33023 36240 ft 514 kts 196°
2026-05-05 15:36 30.49603 -82.33903 36253 ft 513 kts 197°
2026-05-05 15:36 30.42501 -82.34800 36254 ft 513 kts 197°
2026-05-05 15:37 30.35394 -82.35686 36249 ft 514 kts 196°
2026-05-05 15:37 30.28366 -82.36556 36231 ft 514 kts 196°
2026-05-05 15:38 30.21260 -82.37439 36231 ft 514 kts 196°
2026-05-05 15:38 30.14058 -82.37797 36188 ft 526 kts 186°
2026-05-05 15:39 30.06741 -82.37378 36199 ft 526 kts 186°
2026-05-05 15:39 29.99424 -82.36963 36185 ft 526 kts 186°
2026-05-05 15:40 29.92146 -82.36550 36168 ft 526 kts 186°
2026-05-05 15:40 29.84836 -82.36155 36143 ft 525 kts 186°
2026-05-05 15:41 29.78765 -82.35825 36146 ft 525 kts 186°
2026-05-05 15:41 29.71462 -82.35421 36148 ft 526 kts 186°
2026-05-05 15:42 29.64153 -82.35017 36151 ft 526 kts 186°
2026-05-05 15:42 29.56842 -82.34614 36130 ft 526 kts 186°
2026-05-05 15:43 29.49571 -82.34205 36128 ft 526 kts 186°
2026-05-05 15:43 29.42255 -82.33807 35411 ft 530 kts 186°
2026-05-05 15:43 29.38548 -82.33584 34474 ft 537 kts 184°
2026-05-05 15:44 29.34817 -82.33236 33781 ft 538 kts 182°
2026-05-05 15:44 29.31096 -82.32779 33023 ft 537 kts 180°
2026-05-05 15:44 29.27401 -82.32266 32463 ft 532 kts 179°
2026-05-05 15:44 29.23755 -82.31748 31946 ft 525 kts 179°
2026-05-05 15:45 29.20156 -82.31252 31468 ft 518 kts 180°
2026-05-05 15:45 29.16637 -82.30799 30994 ft 511 kts 180°
2026-05-05 15:45 29.13128 -82.30378 30552 ft 504 kts 180°
2026-05-05 15:45 29.09661 -82.29981 30090 ft 497 kts 180°
2026-05-05 15:46 29.06237 -82.29599 29550 ft 492 kts 181°
2026-05-05 15:46 29.02853 -82.29220 28990 ft 486 kts 180°
2026-05-05 15:46 28.99498 -82.28835 28355 ft 483 kts 180°
2026-05-05 15:46 28.96170 -82.28444 27772 ft 479 kts 180°
2026-05-05 15:47 28.92874 -82.28048 27228 ft 474 kts 180°
2026-05-05 15:47 28.89609 -82.27651 26683 ft 470 kts 180°
2026-05-05 15:47 28.86372 -82.27259 26157 ft 465 kts 180°
2026-05-05 15:47 28.83172 -82.26874 25622 ft 461 kts 180°
2026-05-05 15:48 28.79997 -82.26495 25116 ft 456 kts 180°
2026-05-05 15:48 28.76855 -82.26125 24615 ft 452 kts 181°
2026-05-05 15:48 28.73743 -82.25793 24118 ft 445 kts 185°
2026-05-05 15:48 28.70669 -82.25737 23583 ft 439 kts 186°
2026-05-05 15:49 28.67632 -82.25694 22998 ft 435 kts 186°
2026-05-05 15:49 28.64616 -82.25652 22459 ft 431 kts 186°
2026-05-05 15:49 28.61646 -82.25608 21818 ft 422 kts 186°
2026-05-05 15:49 28.58735 -82.25554 20748 ft 415 kts 185°
2026-05-05 15:50 28.55875 -82.25495 19739 ft 408 kts 184°
2026-05-05 15:50 28.53065 -82.25436 18777 ft 400 kts 184°
2026-05-05 15:50 28.50307 -82.25383 17734 ft 393 kts 184°
2026-05-05 15:50 28.47640 -82.25343 16697 ft 385 kts 184°
2026-05-05 15:51 28.44954 -82.25310 15690 ft 376 kts 184°
2026-05-05 15:51 28.42384 -82.25283 14828 ft 374 kts 184°
2026-05-05 15:51 28.39807 -82.25260 14306 ft 364 kts 185°
2026-05-05 15:51 28.37351 -82.25610 13321 ft 352 kts 199°
2026-05-05 15:52 28.35117 -82.26636 12864 ft 341 kts 213°
2026-05-05 15:52 28.33212 -82.28142 12488 ft 329 kts 223°
2026-05-05 15:52 28.31479 -82.29795 12086 ft 323 kts 223°
2026-05-05 15:52 28.29767 -82.31422 11677 ft 319 kts 223°
2026-05-05 15:53 28.28094 -82.33013 11279 ft 314 kts 222°
2026-05-05 15:53 28.26428 -82.34597 10885 ft 311 kts 222°
2026-05-05 15:53 28.24782 -82.36165 10480 ft 307 kts 222°
2026-05-05 15:53 28.23157 -82.37711 10181 ft 301 kts 222°
2026-05-05 15:54 28.21577 -82.39207 9950 ft 292 kts 221°
2026-05-05 15:54 28.19856 -82.40396 9735 ft 290 kts 205°
2026-05-05 15:54 28.17911 -82.41033 9396 ft 293 kts 190°
2026-05-05 15:54 28.15874 -82.41137 8973 ft 294 kts 182°
2026-05-05 15:55 28.13831 -82.41178 8564 ft 292 kts 182°
2026-05-05 15:55 28.11811 -82.41223 8156 ft 290 kts 182°
2026-05-05 15:55 28.09805 -82.41271 7798 ft 286 kts 182°
2026-05-05 15:55 28.07846 -82.41318 7407 ft 283 kts 183°
2026-05-05 15:56 28.05885 -82.41364 7018 ft 282 kts 182°
2026-05-05 15:56 28.03948 -82.41411 6665 ft 275 kts 183°
2026-05-05 15:56 28.02054 -82.41459 6035 ft 269 kts 182°
2026-05-05 15:56 28.00205 -82.41507 5636 ft 266 kts 182°
2026-05-05 15:57 27.98405 -82.41552 5396 ft 247 kts 181°
2026-05-05 15:57 27.96770 -82.41586 5315 ft 226 kts 181°
2026-05-05 15:57 27.95198 -82.41619 5246 ft 226 kts 181°
2026-05-05 15:57 27.93639 -82.41651 5156 ft 222 kts 181°
2026-05-05 15:58 27.92115 -82.41876 5057 ft 221 kts 200°
2026-05-05 15:58 27.90829 -82.42789 4944 ft 221 kts 218°
2026-05-05 15:58 27.89679 -82.43854 4738 ft 207 kts 217°
2026-05-05 15:58 27.88584 -82.44874 4557 ft 203 kts 219°
2026-05-05 15:59 27.87500 -82.45884 4381 ft 199 kts 217°
2026-05-05 15:59 27.86444 -82.46866 4263 ft 195 kts 217°
2026-05-05 15:59 27.85405 -82.47833 4128 ft 193 kts 216°
2026-05-05 15:59 27.84363 -82.48797 3998 ft 194 kts 217°
2026-05-05 16:00 27.83315 -82.49765 3869 ft 195 kts 218°
2026-05-05 16:00 27.82270 -82.50733 3739 ft 194 kts 216°
2026-05-05 16:00 27.81231 -82.51697 3615 ft 193 kts 215°
2026-05-05 16:00 27.80202 -82.52651 3490 ft 194 kts 215°
2026-05-05 16:01 27.79154 -82.53621 3382 ft 195 kts 218°
2026-05-05 16:01 27.78102 -82.54598 3253 ft 196 kts 218°
2026-05-05 16:01 27.77107 -82.55638 3123 ft 198 kts 232°
2026-05-05 16:01 27.76841 -82.57141 3037 ft 204 kts 283°
2026-05-05 16:02 27.77628 -82.58396 3000 ft 198 kts 333°
2026-05-05 16:02 27.78928 -82.58578 3014 ft 189 kts 22°
2026-05-05 16:02 27.80025 -82.57808 3009 ft 187 kts 39°
2026-05-05 16:02 27.81128 -82.57018 2867 ft 187 kts 35°
2026-05-05 16:03 27.82237 -82.56244 2674 ft 187 kts 35°
2026-05-05 16:03 27.83338 -82.55477 2460 ft 184 kts 34°
2026-05-05 16:03 27.84509 -82.54911 2270 ft 186 kts 18°
2026-05-05 16:03 27.85763 -82.54677 2037 ft 180 kts 10°
2026-05-05 16:04 27.86991 -82.54579 1805 ft 173 kts
2026-05-05 16:04 27.88178 -82.54522 1605 ft 168 kts
2026-05-05 16:04 27.89344 -82.54477 1375 ft 162 kts
2026-05-05 16:04 27.90443 -82.54439 1154 ft 154 kts
2026-05-05 16:05 27.91510 -82.54401 984 ft 152 kts
2026-05-05 16:05 27.92550 -82.54364 797 ft 152 kts
2026-05-05 16:05 27.93605 -82.54329 601 ft 150 kts
2026-05-05 16:05 27.94640 -82.54296 410 ft 152 kts
2026-05-05 16:06 27.95697 -82.54268 224 ft 152 kts
2026-05-05 16:06 27.96747 -82.54225 57 ft 146 kts
2026-05-05 16:06 27.97622 -82.54191 47 ft 82 kts
2026-05-05 16:06 27.97904 -82.54134 48 ft 23 kts 30°
2026-05-05 16:07 27.98013 -82.54061 47 ft 16 kts 31°
2026-05-05 16:07 27.98017 -82.53982 46 ft 12 kts 134°
2026-05-05 16:07 27.97926 -82.53975 45 ft 15 kts 183°
2026-05-05 16:07 27.97823 -82.53957 44 ft 15 kts 129°
2026-05-05 16:08 27.97822 -82.53881 43 ft 7 kts 82°
2026-05-05 16:08 27.97827 -82.53849 42 ft 3 kts 81°
2026-05-05 16:08 27.97830 -82.53822 43 ft 4 kts 81°
2026-05-05 16:08 27.97834 -82.53797 43 ft 0 kts 81°
2026-05-05 16:09 27.97845 -82.53792 43 ft 4 kts
2026-05-05 16:09 27.97879 -82.53795 43 ft 1 kts 353°
2026-05-05 16:09 27.97889 -82.53797 43 ft 1 kts 353°
2026-05-05 16:10 27.97894 -82.53797 43 ft 1 kts 353°
2026-05-05 16:10 27.97897 -82.53797 43 ft 0 kts 353°